Wind_Speed
10 12 12 10 9 12 16 18 17 15 13 11 11 10 10 10 5 3 4 6 7 7 8 7 9 11 8 6 6 7 8 8 10 10 15 15 13 14 13 12 12 11 12 12 13 14 13 13 11 9 9 8 7 7 6 6 5 4 4 3 3 2 2 1 2 3 4 4 5 5 5 6 9 10 11 12 13 13 14 15 16 17 17 17 17
13 12 10 10 9 10 14 17 17 17 14 12 14 14 12 13 10 7 6 6 9 9 8 7 6 10 11 11 10 9 8 8 11 10 13 14 13 13 14 14 13 12 13 13 14 15 15 16 14 12 11 10 9 8 7 7 6 6 5 5 4 3 3 2 2 3 4 4 4 4 5 6 8 9 10 12 13 13 13 14 16 16 16 17 17
13 13 11 10 9 8 11 13 14 17 16 14 15 16 13 13 13 12 10 9 8 10 11 9 6 8 10 11 11 11 11 9 10 10 9 13 13 12 13 14 14 14 14 15 15 16 16 17 17 14 13 12 11 10 9 8 8 7 7 7 6 4 3 2 2 3 4 3 3 4 4 5 7 8 10 11 12 12 13 14 15 15 16 16 16
14 14 13 11 9 8 9 8 11 16 18 17 17 16 13 11 10 10 10 10 9 9 11 9 8 8 8 8 8 9 12 10 11 11 10 12 14 13 13 14 15 15 15 16 16 17 17 18 18 17 15 14 13 12 11 10 9 8 8 8 7 5 4 3 2 3 4 3 3 3 3 5 6 8 10 11 11 11 12 13 14 15 15 16 16
14 13 13 13 13 11 11 9 11 16 18 19 18 16 13 10 10 10 9 8 9 10 9 9 9 9 9 9 8 8 10 11 12 12 11 12 14 14 13 12 14 14 15 16 16 18 18 17 19 19 17 16 15 13 12 12 11 10 9 9 8 6 4 4 2 3 4 4 3 3 3 4 5 8 9 10 10 11 12 13 14 14 15 15 16
16 15 13 14 16 13 12 12 13 14 15 17 16 14 13 12 12 13 11 11 13 12 10 10 10 9 9 10 9 10 11 11 12 13 12 12 13 14 13 12 12 12 13 14 15 17 18 18 19 21 20 18 17 15 13 13 12 11 11 10 9 7 6 5 3 3 4 4 3 3 2 3 5 7 8 9 9 10 12 12 13 14 15 15 16
17 16 14 14 15 14 13 15 17 15 14 14 13 11 11 12 13 12 13 15 16 14 11 11 10 10 8 9 10 10 11 12 13 13 13 14 14 13 14 14 12 11 12 14 15 16 17 18 18 20 22 20 19 17 15 14 13 13 12 11 11 9 8 6 4 4 5 4 3 3 2 2 4 7 7 8 8 10 11 12 13 14 14 15 15
13 15 15 15 15 15 16 16 17 17 16 14 12 12 11 12 14 13 12 12 12 11 11 11 9 10 10 10 12 12 11 13 14 14 13 14 16 14 13 15 15 13 12 13 14 14 15 16 17 19 21 21 20 19 17 15 15 14 14 13 12 10 10 8 5 5 6 5 4 3 1 1 4 6 6 7 8 10 10 11 12 13 14 15 15
13 13 14 16 15 16 17 18 18 18 18 17 16 16 14 13 12 12 12 11 10 10 12 13 10 9 11 11 12 13 14 13 15 17 15 14 16 16 15 15 15 14 13 13 14 13 13 14 16 17 19 21 22 21 19 17 16 16 15 15 13 12 11 8 6 7 6 6 5 4 2 1 3 5 5 6 8 9 10 11 12 13 14 14 14
17 15 14 15 16 16 17 18 19 19 19 18 18 19 18 15 11 11 13 14 13 12 13 14 11 10 13 13 12 13 16 15 15 18 17 17 16 16 16 15 15 15 13 13 14 14 13 14 15 17 19 21 22 22 21 19 18 18 17 16 14 14 13 9 7 8 7 7 6 4 2 0 2 4 4 5 7 8 9 10 11 13 14 14 14
16 18 18 17 16 17 17 18 19 20 20 19 19 19 18 18 16 15 15 14 14 14 14 14 13 13 12 13 12 11 14 15 15 16 17 20 19 16 16 16 16 17 16 17 18 19 18 17 17 18 19 20 22 23 23 22 20 18 17 17 17 16 14 10 9 9 8 7 7 5 3 1 1 3 3 4 6 7 8 10 11 12 13 14 14
14 17 20 19 17 17 18 19 20 20 19 19 20 20 19 18 18 18 18 18 17 15 17 16 17 17 11 11 11 9 11 14 16 18 18 19 19 18 18 17 17 17 18 17 17 19 21 21 20 20 20 20 22 23 24 23 21 17 16 17 18 18 15 12 11 10 9 8 8 6 4 2 1 2 2 3 5 6 8 10 11 12 13 13 13
13 14 17 18 17 17 18 18 20 20 19 18 20 21 21 20 20 18 19 21 21 19 18 17 18 18 12 9 13 14 13 14 16 18 19 19 19 21 21 20 20 19 18 18 17 18 20 21 21 21 21 22 23 23 23 23 21 19 17 17 18 18 17 14 13 12 10 10 9 8 6 3 1 1 1 3 5 6 8 9 10 12 12 13 12
10 13 14 15 15 16 18 17 18 20 20 18 18 19 20 23 23 23 22 22 23 22 20 18 17 18 15 11 14 17 17 15 16 17 19 20 20 22 23 23 23 21 19 20 20 19 18 19 20 19 20 22 22 21 21 21 21 20 19 18 17 19 19 16 15 14 11 11 10 9 7 4 2 1 1 3 5 6 8 9 10 11 12 12 11
10 10 9 11 12 13 16 17 16 17 18 18 19 19 18 21 23 24 25 25 25 24 23 23 20 17 17 15 14 15 16 16 19 19 19 20 20 20 23 23 23 22 20 21 21 20 20 20 20 20 20 22 22 20 20 21 21 19 19 19 18 20 21 18 17 15 12 12 12 11 8 5 3 2 2 2 4 6 7 8 9 10 11 11 10
10 10 8 8 9 10 12 15 16 15 15 16 18 18 17 19 22 23 24 26 29 27 24 24 24 21 20 19 16 15 16 16 19 21 21 21 20 21 24 24 22 22 23 24 24 23 22 22 21 21 21 23 24 22 21 21 22 20 18 19 19 21 22 20 18 17 13 13 14 13 10 7 5 3 2 2 4 5 7 8 9 10 10 11 10
8 11 11 10 11 11 10 12 14 15 15 14 15 16 16 18 22 23 23 26 30 30 26 24 25 26 26 24 19 15 15 15 15 20 22 22 21 23 26 24 22 23 24 26 26 24 24 24 22 22 24 25 26 24 23 22 21 21 20 19 20 23 24 22 20 19 16 15 15 14 12 9 6 4 3 2 3 4 6 7 8 9 10 10 10
4 7 10 12 13 13 13 13 13 14 15 15 15 13 13 15 17 19 20 24 28 29 30 30 29 29 30 29 25 19 16 13 10 12 15 19 20 23 26 25 23 24 24 26 25 23 24 24 22 23 24 26 26 25 24 22 22 23 21 20 20 24 26 24 23 21 18 16 17 16 13 10 8 5 4 2 2 3 5 7 8 8 9 10 9
5 4 5 8 10 11 12 14 13 14 15 16 16 15 14 14 15 16 17 20 24 27 30 32 32 33 33 33 32 27 21 18 15 12 10 12 16 21 24 24 25 25 25 25 24 23 24 24 23 23 25 27 27 26 25 23 24 24 23 20 18 21 26 26 25 23 20 18 18 18 15 12 9 7 5 3 1 2 4 6 7 8 9 10 10
3 5 4 4 6 9 10 12 12 13 13 14 15 15 15 16 16 17 17 19 21 24 27 29 31 33 34 35 34 32 29 27 25 20 17 14 13 17 21 23 25 27 28 26 24 24 25 25 24 22 23 26 27 27 25 24 25 27 26 25 21 20 23 26 27 24 21 20 20 19 17 14 11 8 6 4 2 1 3 5 6 8 10 10 11
5 4 4 4 4 6 8 10 11 12 13 14 14 14 15 16 17 18 20 21 21 22 23 25 27 30 32 33 31 30 33 33 30 28 26 22 15 13 16 19 24 27 28 27 26 24 24 24 24 23 23 25 26 27 26 26 28 30 30 30 28 24 23 26 28 27 22 21 21 20 18 16 13 10 7 5 3 1 2 4 6 8 10 11 12
7 7 6 6 6 6 7 7 9 11 14 16 17 18 18 19 20 20 21 22 22 22 23 23 25 26 28 30 29 30 33 35 37 36 33 28 23 17 14 14 20 25 27 29 29 27 26 26 25 26 27 26 26 27 28 27 28 31 31 31 30 27 25 28 30 28 24 22 21 21 19 17 15 12 8 6 4 2 2 4 6 8 10 11 12
9 10 10 9 11 11 11 11 11 12 13 14 17 18 19 19 21 22 23 24 23 23 24 24 25 25 26 28 30 33 35 36 38 39 37 33 29 25 21 17 17 20 24 29 31 29 28 30 29 29 30 28 26 27 28 28 28 30 30 32 31 27 26 31 32 29 25 23 22 22 20 18 16 13 10 7 5 3 2 3 5 7 9 10 11
9 9 9 10 13 14 14 15 15 15 15 15 15 16 17 17 19 21 23 24 23 23 25 26 26 27 28 29 30 33 35 35 35 37 37 35 32 31 31 26 21 20 19 22 29 32 29 30 31 29 30 28 25 26 28 28 29 29 30 32 31 27 28 33 33 29 26 24 23 22 21 19 17 15 12 9 6 4 3 3 5 7 9 10 11
9 10 11 13 16 16 17 18 18 19 19 19 19 18 18 19 20 21 22 23 23 23 25 27 28 28 28 29 31 33 35 36 35 35 35 35 34 34 35 33 29 26 21 19 24 29 30 31 30 29 30 26 21 24 27 28 28 27 28 32 31 27 28 34 34 29 27 25 24 24 22 20 18 16 13 10 7 5 3 4 5 7 9 10 11
13 14 15 17 19 19 20 21 21 22 23 23 22 22 22 22 22 23 23 24 25 25 26 28 29 28 27 28 30 31 33 35 36 36 36 35 35 35 34 32 31 29 27 25 21 21 26 30 29 27 29 28 22 21 26 29 26 24 26 30 30 26 27 33 34 29 27 27 25 25 24 21 19 17 14 11 9 6 5 5 6 7 9 10 10
16 17 18 19 21 22 23 24 25 26 27 27 25 23 23 23 24 25 26 27 27 28 29 29 30 30 28 28 29 30 30 32 35 37 39 38 37 36 33 30 29 28 29 30 25 21 22 26 27 26 27 30 26 21 25 29 25 22 25 29 29 26 24 30 34 29 27 28 26 25 25 22 20 18 15 12 9 7 5 5 6 7 9 10 11
19 20 20 21 22 23 24 26 28 28 27 27 26 24 22 22 24 26 27 28 27 28 29 30 30 31 32 30 29 29 29 30 33 35 38 41 40 38 35 32 31 30 30 31 31 28 23 21 24 25 26 29 28 25 27 29 24 22 26 28 28 25 23 26 31 30 27 27 27 27 26 23 20 18 16 13 10 8 6 5 6 7 8 10 11
21 21 23 24 24 24 26 28 28 27 25 24 24 22 21 21 24 26 26 26 26 26 27 29 31 31 32 32 32 31 30 31 33 33 34 40 43 42 41 38 36 35 33 31 33 33 27 22 21 20 24 29 29 29 30 28 25 25 27 29 28 26 24 24 27 30 29 28 27 28 26 23 20 19 16 13 11 9 6 6 6 7 9 10 12
22 23 24 25 25 26 27 28 27 25 23 23 22 22 21 20 21 25 26 24 23 24 25 27 29 29 29 31 33 34 33 31 31 32 34 37 41 44 44 43 41 40 38 34 35 35 31 29 24 16 19 27 31 31 32 31 29 28 28 29 29 27 25 25 26 29 30 29 28 27 26 23 21 20 17 13 11 9 7 7 7 8 9 11 13
23 24 25 26 26 27 27 27 26 24 23 22 22 21 21 22 22 23 25 25 23 24 26 26 25 26 28 29 31 34 35 34 32 32 34 35 38 40 41 42 43 42 41 37 37 38 35 34 29 18 15 23 31 33 33 33 32 31 30 29 28 26 26 27 27 28 29 30 28 27 26 24 22 21 18 14 12 10 8 8 9 9 10 12 13
24 25 26 27 27 26 26 25 25 24 23 22 22 21 21 22 23 24 24 25 24 24 25 26 24 24 26 27 29 31 33 36 36 34 33 34 36 38 39 40 42 43 42 40 40 43 40 37 33 25 17 19 29 35 35 33 33 33 31 30 29 27 26 27 28 28 30 31 29 28 27 25 24 22 19 16 13 11 9 9 11 11 12 12 13
25 25 26 26 26 26 26 25 25 24 23 22 21 21 21 22 23 24 24 24 24 23 23 25 25 24 25 26 27 28 29 32 35 36 36 34 34 36 37 38 40 40 42 43 43 44 44 42 36 30 25 21 23 30 34 34 34 34 32 31 30 28 28 28 29 30 31 32 31 30 28 26 24 23 21 19 15 12 10 11 12 13 13 13 14
25 25 26 26 25 26 26 26 25 24 24 23 21 21 22 22 23 23 23 23 24 25 25 26 26 25 25 27 27 27 28 28 31 33 36 35 34 35 35 35 36 37 39 42 43 43 44 44 39 35 36 32 24 26 32 33 34 34 32 32 30 29 28 29 31 32 32 33 33 31 29 27 26 24 23 20 17 13 11 12 14 15 14 14 14
24 24 24 24 24 25 26 26 25 24 24 23 22 22 22 22 23 24 24 24 25 26 27 28 29 27 27 27 28 28 28 29 30 31 33 34 35 36 36 35 36 37 39 41 43 44 44 43 41 39 41 38 29 28 32 33 32 32 30 31 30 29 29 30 31 33 34 35 33 29 27 28 27 26 25 21 18 15 14 15 16 16 15 14 15
23 23 23 23 24 25 26 26 25 24 24 24 23 23 23 23 23 24 25 26 26 27 27 28 30 30 29 29 29 28 29 29 29 30 32 33 34 35 37 38 38 38 39 40 41 43 44 43 42 41 42 39 30 29 34 34 33 33 30 30 30 29 31 32 31 33 36 36 32 29 29 29 28 27 26 23 20 19 18 17 17 16 15 15 15
22 22 23 23 24 24 25 25 25 25 25 24 23 23 23 23 24 25 25 26 27 28 28 28 29 29 31 31 30 29 30 31 31 29 30 31 33 35 36 38 39 38 38 39 39 40 41 43 43 40 42 41 32 30 34 35 35 33 29 29 30 30 33 34 33 34 37 36 33 31 31 31 30 29 27 24 23 22 21 19 18 17 15 15 15
21 22 23 23 23 24 24 25 25 25 25 25 24 24 24 24 25 25 26 27 28 29 30 30 30 30 30 31 32 31 31 32 33 32 30 28 31 35 37 38 38 37 37 39 40 39 39 42 43 40 41 41 34 32 34 35 37 36 32 30 31 31 34 36 36 38 39 37 35 35 34 33 32 31 29 27 26 25 23 20 19 17 16 16 16
20 22 23 24 24 24 25 25 25 25 26 25 25 25 25 26 26 26 27 28 28 29 30 31 31 32 32 32 33 33 33 33 33 35 35 32 29 31 35 38 38 37 37 38 40 40 38 38 40 40 40 39 35 35 36 34 35 37 36 35 34 33 35 39 40 42 41 39 37 36 35 35 34 33 31 30 29 27 24 22 20 17 16 17 17
21 22 23 24 24 24 24 25 25 25 26 26 26 26 26 26 26 26 27 28 28 29 30 31 32 32 33 33 34 35 36 35 34 33 35 36 34 32 33 36 38 39 40 40 40 40 38 37 36 37 39 39 38 39 38 35 37 38 38 38 34 31 34 40 44 44 43 41 39 38 37 37 36 35 34 32 31 29 26 24 22 19 18 17 17
22 22 22 22 22 23 24 25 26 26 27 28 28 28 27 27 27 27 27 27 27 27 28 30 32 33 33 35 36 37 38 38 37 35 34 36 38 37 35 33 35 38 40 42 42 41 40 38 37 36 38 41 42 43 42 42 43 44 42 38 32 31 36 42 46 46 44 42 40 40 39 38 38 38 36 34 32 30 28 26 23 20 18 17 17
21 21 21 21 22 24 25 25 26 27 28 29 29 29 29 29 30 32 32 32 31 30 29 30 31 32 33 34 35 37 38 39 39 39 39 38 39 41 40 37 34 34 37 40 42 42 42 42 40 39 41 43 44 46 47 48 48 48 46 41 36 36 39 43 45 46 44 43 42 42 41 39 39 38 35 33 32 31 30 28 24 20 18 17 17
21 20 21 22 24 25 25 26 27 27 28 29 29 29 29 30 32 33 36 37 37 37 37 36 35 34 33 34 36 37 37 37 39 40 41 42 42 44 45 43 40 38 37 37 38 38 40 42 42 40 42 45 46 47 48 49 50 51 48 43 40 41 43 45 46 46 46 46 45 43 41 39 37 36 34 33 33 32 31 28 24 21 19 17 16
20 21 22 25 26 26 26 27 28 29 30 30 30 30 30 31 33 34 37 38 40 41 42 42 41 40 37 36 37 38 37 37 36 37 39 40 41 43 45 47 46 45 43 41 39 37 37 40 42 42 42 44 46 49 51 51 51 50 47 44 42 42 43 45 46 46 46 47 46 43 40 39 38 37 36 35 34 32 30 28 25 22 20 17 15
21 22 24 26 26 26 26 27 29 30 30 30 30 31 32 33 34 35 38 39 41 42 43 43 44 43 41 40 40 40 40 39 37 37 38 37 37 37 40 45 48 49 49 47 45 42 38 38 40 43 45 45 45 48 52 53 52 50 47 45 44 43 44 44 44 44 43 43 43 43 41 40 40 40 39 37 34 32 30 29 26 23 19 16 15
22 25 28 30 29 27 26 27 29 30 31 31 31 31 33 34 34 36 39 41 42 44 44 45 44 44 43 42 42 42 42 41 41 39 37 36 34 33 34 39 44 48 49 51 52 49 45 41 41 42 42 43 45 47 49 53 54 53 53 50 45 42 43 42 41 42 41 40 39 40 41 42 42 41 40 38 35 32 31 29 27 24 20 16 15
24 28 31 32 31 29 28 28 29 32 32 32 32 31 31 32 33 35 39 42 44 46 47 47 47 47 46 46 45 44 44 43 43 42 40 36 34 33 33 34 38 42 45 48 52 53 52 49 45 42 40 41 44 46 48 51 54 55 55 51 43 39 40 41 41 42 41 39 38 39 40 40 40 40 40 37 34 32 32 29 26 25 21 16 14
27 30 32 31 30 31 30 29 30 33 33 33 32 32 32 33 34 36 38 41 43 46 47 47 47 47 48 49 50 49 46 45 44 44 44 41 38 37 36 33 33 36 41 44 45 48 51 53 52 48 44 41 41 42 43 48 54 55 51 44 40 40 42 42 42 42 41 39 38 38 38 38 38 37 36 34 32 32 31 29 27 24 19 15 14
27 28 29 31 31 31 30 29 31 33 34 33 33 33 34 35 37 39 41 42 44 46 47 47 45 44 44 44 46 48 48 47 45 43 44 44 43 43 41 37 33 32 36 40 41 41 43 45 48 51 50 46 44 41 41 46 53 55 52 47 44 45 45 44 43 42 42 40 38 38 38 37 36 33 30 30 30 30 29 28 25 20 16 15 15
28 28 29 31 31 29 28 29 31 33 34 34 33 34 34 34 36 38 40 42 44 46 47 47 46 45 44 42 41 43 45 46 44 42 42 44 45 46 46 42 38 35 33 34 38 40 39 37 37 41 48 50 47 43 42 45 51 55 54 51 49 48 48 47 45 44 41 39 38 37 37 37 33 28 27 27 27 26 25 24 22 18 15 15 14
28 30 31 33 31 29 29 30 30 31 33 33 32 33 34 34 35 38 40 42 45 45 46 47 47 46 46 44 42 42 43 43 43 43 42 42 44 47 47 45 44 40 34 31 34 39 40 38 34 34 41 47 48 43 40 42 49 54 53 51 50 50 49 48 47 44 41 39 38 38 37 36 33 28 28 29 28 25 24 23 22 18 14 13 13
Wind_Direction
227 227 217 215 235 234 216 205 205 206 199 188 200 213 196 201 214 161 154 143 171 215 223 216 206 199 187 196 209 205 223 195 173 225 248 249 258 264 270 271 267 255 249 249 248 247 243 241 233 220 219 214 207 203 200 205 209 215 222 232 238 252 259 160 90 83 86 88 82 81 73 60 52 42 32 28 27 28 27 25 22 19 18 16 13
228 230 222 216 228 234 221 210 207 205 194 183 204 220 201 200 206 191 193 182 193 213 226 244 227 208 197 181 196 218 230 216 189 208 255 261 258 266 273 271 269 261 252 247 247 247 244 245 241 229 223 219 215 209 206 207 211 215 220 227 226 235 238 202 123 100 96 96 95 89 73 58 48 37 29 27 26 27 25 22 20 19 17 16 12
232 232 226 216 220 229 223 214 211 209 197 184 204 222 209 203 198 184 188 189 201 217 226 242 231 226 224 191 188 210 217 227 219 206 238 263 263 266 273 275 274 269 261 252 249 249 245 245 244 237 229 224 219 212 211 209 212 217 221 227 227 229 234 213 145 113 113 116 111 97 75 58 45 33 27 27 25 26 23 21 20 19 18 16 13
236 236 230 222 218 230 235 224 212 211 206 193 201 219 217 214 207 186 182 185 196 220 238 252 231 220 239 227 207 214 214 219 230 217 215 248 263 265 272 280 279 276 270 261 255 253 251 249 248 244 236 231 225 215 213 213 215 219 224 230 230 232 239 226 163 128 138 137 125 109 79 56 42 29 26 24 25 24 21 21 22 20 19 17 13
232 233 230 227 221 230 241 236 220 210 208 203 203 211 207 208 220 205 187 194 211 221 235 256 249 221 217 235 238 230 222 218 231 228 213 233 257 266 271 281 284 281 276 269 261 255 253 252 251 248 241 237 232 221 214 215 217 219 224 231 233 236 243 234 185 145 156 150 134 121 85 55 37 27 24 22 23 22 20 22 23 22 20 17 13
230 228 224 227 223 227 234 232 233 222 214 214 213 210 197 196 215 215 207 215 216 209 213 230 247 242 215 216 229 237 230 220 230 233 216 218 244 264 270 274 281 283 279 272 263 258 255 254 252 250 245 240 237 229 218 217 221 221 225 231 232 234 240 236 201 167 167 157 145 128 90 52 34 26 21 20 23 21 21 24 25 23 19 16 13
230 229 229 234 227 224 226 227 234 232 225 223 220 218 207 198 205 214 220 216 206 203 218 228 234 244 237 219 215 226 233 224 222 228 226 219 223 247 265 270 275 281 283 279 270 263 258 255 254 252 248 244 241 236 226 220 223 224 225 229 232 232 236 234 205 178 175 165 158 143 103 44 31 24 19 21 22 21 23 27 27 24 19 15 13
236 232 234 239 233 222 218 221 229 232 231 228 219 218 220 212 204 207 221 221 211 214 228 235 234 236 238 234 221 214 221 226 223 223 228 231 224 226 245 261 270 278 284 283 275 264 257 256 254 252 250 248 245 243 236 226 224 225 225 228 231 232 236 232 203 181 182 178 170 160 135 40 25 20 19 22 22 24 27 30 29 25 20 15 13
246 242 237 237 237 229 220 219 224 230 233 232 225 222 226 226 216 210 217 219 218 228 236 235 237 244 244 244 235 222 216 220 228 223 216 230 237 229 230 241 251 264 277 283 278 263 257 258 255 252 250 247 246 247 245 235 226 225 225 226 229 233 236 233 208 186 186 189 182 174 171 29 18 19 20 21 23 27 30 31 29 25 20 16 14
239 242 241 236 236 236 232 227 229 232 233 232 230 228 226 228 230 221 218 218 215 222 239 240 240 250 255 255 250 239 227 218 227 231 216 215 229 236 239 239 237 243 253 267 274 270 263 261 258 253 249 246 244 247 249 244 234 227 226 226 228 232 233 229 213 196 192 194 190 184 185 226 10 19 21 23 27 31 34 33 30 25 20 17 15
231 233 235 235 235 236 236 232 232 235 234 231 230 231 229 228 232 229 227 227 221 218 226 239 244 238 247 261 263 259 243 225 223 231 227 217 217 228 239 243 244 243 242 246 256 263 262 259 260 257 251 248 245 245 247 248 243 234 228 226 225 230 230 224 216 205 199 198 194 192 194 215 357 21 24 28 33 37 39 35 32 27 22 19 17
227 230 234 235 237 237 236 234 231 232 233 232 229 231 235 234 232 234 237 237 236 230 223 233 242 232 236 256 250 258 256 239 227 223 228 229 221 219 226 235 245 249 252 253 252 255 257 256 258 260 258 254 250 249 248 249 250 244 237 230 227 229 228 225 222 213 204 203 198 197 200 211 329 27 35 37 43 44 43 40 35 29 24 21 18
228 231 236 237 240 237 236 238 235 232 234 235 233 232 236 237 236 237 240 241 243 240 231 235 242 233 232 249 242 245 249 246 244 233 225 228 226 223 219 221 231 238 249 256 254 254 256 255 255 258 262 261 256 253 251 251 251 247 242 237 232 230 228 226 227 220 207 205 203 201 203 208 244 51 64 52 52 50 46 44 38 32 27 23 20
231 233 235 239 244 240 237 240 240 237 236 237 237 235 234 236 238 239 240 243 246 247 242 239 245 237 230 246 251 249 246 240 244 244 235 230 230 232 225 220 226 232 240 248 250 252 251 252 257 259 261 264 261 253 249 250 249 246 242 239 236 232 229 224 224 224 211 205 206 203 205 207 207 154 100 68 60 57 50 47 41 35 30 26 22
232 234 234 241 246 246 243 241 241 243 244 246 245 242 237 236 238 239 240 244 247 251 251 245 246 242 232 242 250 244 243 235 229 235 241 238 232 234 233 228 228 231 234 238 243 246 242 242 251 258 262 264 264 256 252 254 255 253 248 243 236 231 230 222 217 223 215 206 208 206 205 206 200 178 132 91 70 62 55 49 44 38 33 29 24
237 228 218 228 233 241 248 243 240 241 246 253 256 257 254 247 246 246 243 244 245 247 251 250 247 241 235 240 244 236 232 234 235 238 242 241 232 229 233 233 231 231 231 233 237 241 239 235 238 246 253 257 259 259 259 261 260 258 253 246 235 228 229 222 212 218 216 207 208 208 205 207 200 186 157 107 80 67 57 51 46 41 37 33 28
240 230 221 220 216 221 234 239 237 235 237 242 251 262 265 257 253 252 248 245 246 246 247 250 247 243 238 234 233 232 231 233 243 243 241 241 234 228 232 232 229 230 232 234 236 238 241 239 232 233 240 247 253 256 257 258 257 255 253 247 235 227 227 221 212 214 214 207 208 209 206 207 204 195 177 134 89 69 57 52 47 42 39 36 32
271 238 228 229 226 225 227 232 236 235 234 232 235 246 259 266 262 257 251 245 247 250 248 249 247 245 243 236 229 226 228 227 230 240 245 249 243 232 233 233 227 228 232 235 236 235 239 242 233 227 233 242 247 251 253 254 255 254 251 245 235 228 226 219 212 213 212 206 208 209 208 208 208 204 194 169 99 69 54 49 46 41 40 36 32
321 293 253 240 239 241 237 235 239 241 239 235 234 235 239 251 259 260 257 249 248 249 249 249 247 244 244 241 235 230 231 239 245 254 259 255 243 233 233 235 232 230 230 233 235 233 233 239 239 233 232 237 242 244 244 246 253 254 249 240 232 230 228 220 213 215 213 208 209 208 208 210 211 209 203 194 146 64 46 41 38 34 33 32 29
314 307 302 276 249 252 252 244 242 245 247 244 241 240 240 241 246 252 256 254 252 251 250 250 249 247 245 243 240 235 234 241 249 253 256 258 249 236 235 236 235 234 234 232 231 232 232 234 239 239 235 235 239 239 234 232 241 248 246 241 237 234 231 224 218 218 213 208 210 208 207 211 213 213 211 204 199 54 34 27 26 24 24 21 19
3 343 324 320 291 273 270 258 249 247 249 249 244 241 242 242 244 247 251 253 255 255 254 253 252 251 249 247 244 239 235 238 244 243 244 251 252 244 244 242 236 234 237 236 231 230 232 234 236 235 233 234 237 238 233 227 232 240 244 244 241 235 232 229 225 222 216 210 209 208 208 212 214 214 214 214 221 265 4 9 14 17 17 13 10
345 350 345 337 333 327 318 296 276 265 258 254 249 244 241 239 237 239 245 248 249 251 254 256 255 253 252 250 245 240 238 240 241 237 235 241 246 246 246 244 241 238 236 238 236 231 228 231 234 232 231 233 238 241 240 234 231 234 240 245 242 235 231 231 230 226 218 211 210 209 208 211 216 216 217 222 229 248 305 351 8 12 13 11 7
327 334 338 335 333 332 330 324 313 301 288 272 259 253 251 250 247 243 244 247 247 247 249 252 253 252 250 249 244 241 241 243 242 237 234 237 240 242 241 239 248 251 243 241 240 235 229 228 230 232 234 236 239 243 242 238 231 228 235 243 243 237 230 229 230 226 217 211 209 210 210 211 215 219 221 227 233 244 284 337 360 8 9 7 5
315 319 321 315 315 318 319 319 317 313 310 301 285 267 256 255 257 254 252 253 252 250 249 249 251 251 250 248 245 243 242 245 245 239 237 239 238 241 246 248 249 249 249 251 244 234 229 229 231 233 237 240 239 238 241 240 233 228 233 240 241 238 228 224 227 222 214 211 209 209 213 212 215 220 223 229 234 243 278 321 343 358 2 360 360
293 294 295 295 301 308 311 313 313 311 309 306 299 286 269 257 254 255 254 254 252 250 250 250 252 253 252 250 248 247 245 245 247 241 236 239 240 242 247 250 250 246 248 258 249 235 230 231 234 234 237 242 236 229 237 242 238 233 232 234 238 237 226 220 223 219 210 210 210 211 215 214 216 221 224 229 233 241 270 299 321 344 352 350 351
294 294 296 299 303 307 309 309 309 308 306 302 297 290 282 271 261 254 252 253 252 249 248 248 252 255 255 253 250 250 248 246 246 243 236 236 238 240 243 245 247 247 249 258 258 244 234 232 235 233 232 238 236 227 233 238 239 236 230 230 233 235 227 219 220 218 210 209 211 212 217 218 217 221 224 227 232 241 265 290 310 331 342 340 339
297 299 299 301 304 307 309 310 310 308 305 303 298 291 283 276 268 260 255 254 253 252 250 248 251 254 255 256 254 252 250 247 247 244 240 238 238 238 238 241 244 246 249 256 259 251 240 237 237 231 227 234 236 230 230 233 236 234 227 227 230 232 230 222 220 219 211 208 210 212 216 218 217 221 225 226 232 242 260 286 306 324 333 330 327
298 299 301 302 304 307 309 311 311 307 303 299 297 294 285 272 267 263 260 258 254 253 254 252 251 252 252 254 257 255 254 252 250 246 242 241 241 239 238 240 245 251 254 256 256 253 250 249 242 233 229 231 231 228 228 229 229 227 224 226 229 230 231 227 223 222 215 209 209 213 215 217 217 221 224 226 234 242 255 282 303 316 324 321 317
296 299 302 305 307 309 311 313 311 306 301 297 294 294 290 277 265 261 263 263 258 253 254 256 254 254 254 254 255 256 256 255 252 249 245 242 243 242 242 243 245 251 255 257 256 252 249 251 250 243 235 229 226 225 225 225 223 222 223 224 226 229 230 229 225 224 221 213 211 214 216 217 218 220 223 227 235 243 254 282 298 304 312 314 310
297 300 303 305 307 309 313 314 312 307 301 297 295 295 294 289 276 264 260 261 260 255 252 256 258 257 257 256 255 256 256 255 253 252 249 245 244 244 246 247 247 249 250 251 255 253 248 249 248 252 248 234 228 226 224 224 224 223 224 224 226 229 231 231 228 225 223 217 214 216 216 218 220 219 222 228 235 243 253 276 284 288 301 306 304
296 300 302 305 308 311 313 313 310 304 296 291 291 291 289 289 286 276 263 256 257 257 252 252 255 260 260 258 257 257 255 256 255 254 251 247 247 248 248 249 248 249 247 245 251 252 249 249 243 242 258 241 229 227 224 223 225 225 227 227 226 229 231 233 232 228 223 218 216 217 216 219 220 219 223 228 234 241 252 268 274 278 291 297 298
296 300 304 307 310 310 309 308 306 301 292 285 284 285 283 282 285 286 278 264 259 262 260 254 252 258 262 261 259 258 257 257 257 256 254 251 251 250 251 252 249 248 247 244 248 250 250 253 246 237 247 238 223 223 223 220 221 223 227 229 228 226 227 232 235 230 221 216 216 218 217 219 220 220 224 228 231 238 249 264 269 275 282 289 296
298 302 306 309 309 307 304 302 301 297 290 282 277 277 277 276 277 281 283 276 266 262 263 260 255 254 258 261 260 259 258 258 258 258 256 255 255 253 251 251 248 247 246 243 246 250 250 253 249 239 240 236 220 220 221 217 217 220 225 229 228 226 227 231 233 227 218 214 217 216 215 220 222 222 226 228 230 236 247 259 266 272 277 284 292
301 304 307 308 306 303 301 298 296 294 289 282 276 274 275 276 277 275 276 277 272 265 260 258 255 251 252 256 258 257 257 257 257 258 257 254 253 255 253 249 248 249 248 245 243 246 249 250 247 241 240 238 231 226 224 219 221 225 227 228 226 225 230 232 231 223 214 213 217 214 213 220 223 224 227 229 229 234 247 261 266 270 274 281 288
302 304 303 302 299 296 296 295 292 288 285 281 277 274 271 270 272 274 273 272 273 271 267 263 258 251 248 251 255 255 255 256 256 255 256 255 252 253 252 252 254 253 252 250 245 244 248 248 247 245 243 244 243 237 229 226 229 233 234 233 229 224 226 230 227 219 211 213 215 212 214 220 224 226 229 229 229 236 248 259 264 267 272 279 286
299 299 297 294 292 291 290 291 289 285 282 280 278 277 274 270 268 269 271 271 270 270 270 270 267 260 252 249 251 253 253 254 256 255 254 254 253 252 251 251 256 256 253 252 249 247 247 247 248 247 245 247 245 233 226 226 231 236 238 235 230 223 223 225 222 214 212 215 216 217 220 223 225 227 229 230 232 236 244 251 258 264 271 278 284
294 294 291 288 288 288 287 286 285 282 280 278 277 277 276 274 272 269 270 271 269 269 267 267 269 268 262 255 250 251 253 252 253 255 255 254 252 252 251 250 251 254 254 252 250 250 247 245 247 246 244 246 239 224 222 222 223 226 229 228 226 221 219 218 216 212 214 217 220 223 225 224 225 227 229 231 234 237 240 246 254 263 270 276 281
291 289 287 286 288 287 285 283 282 280 279 278 277 277 276 274 271 268 268 268 269 270 270 267 267 267 266 263 255 250 251 253 252 251 252 255 254 251 251 251 249 250 251 251 250 249 247 245 244 243 243 244 235 218 215 218 218 219 219 216 215 216 215 214 212 211 213 217 221 225 226 224 224 226 228 231 233 236 239 245 252 260 268 275 279
284 284 284 284 285 284 282 280 279 278 279 279 278 277 277 275 273 270 267 265 265 265 266 268 270 268 266 266 262 254 249 250 253 252 249 250 254 253 252 251 250 247 247 250 249 247 246 244 241 239 238 239 233 217 211 212 213 216 219 214 208 209 213 215 214 212 213 216 221 225 226 226 226 226 228 230 233 235 239 246 251 258 267 274 277
281 283 285 286 286 285 283 282 282 282 281 280 279 277 276 275 274 274 273 271 269 268 265 263 265 267 266 265 265 261 254 249 249 253 252 249 250 254 254 253 252 249 247 249 249 247 244 240 238 236 233 232 228 217 208 204 203 209 218 219 218 217 215 215 216 217 216 217 222 225 225 224 225 227 229 231 234 236 239 245 250 256 266 272 275
284 285 286 287 286 284 282 282 282 281 280 280 279 277 276 275 273 272 271 269 269 270 270 267 263 263 264 264 264 265 262 255 247 245 248 249 249 250 251 251 252 251 250 249 248 247 242 236 235 236 231 228 225 218 210 206 208 213 217 217 222 225 219 215 216 218 220 221 223 224 225 225 227 229 231 234 239 241 242 247 251 255 262 271 274
287 288 287 285 282 279 279 279 278 276 274 274 273 271 270 271 270 269 267 265 263 262 264 266 264 261 260 260 262 263 265 264 256 246 241 242 245 245 246 247 247 250 252 250 247 245 242 239 238 234 228 225 225 221 215 213 215 218 218 215 217 218 216 215 216 217 219 222 224 224 225 228 230 232 235 239 244 246 246 249 252 254 260 269 271
287 287 285 283 281 280 281 280 279 277 274 272 271 268 268 268 268 270 270 269 268 265 264 263 262 260 260 259 258 258 260 264 265 258 248 242 241 241 242 243 243 246 251 253 251 248 245 243 238 230 226 226 225 222 217 212 213 216 218 216 215 216 216 216 217 217 218 220 222 224 226 228 231 234 238 241 243 245 246 248 250 253 258 265 267
284 284 282 282 282 283 284 283 281 279 276 275 273 270 268 268 269 269 270 271 270 269 268 266 264 262 261 261 259 256 254 256 261 264 258 249 246 245 242 241 241 242 245 250 254 254 250 246 241 235 232 229 224 218 212 209 211 214 215 213 215 219 221 221 220 222 221 219 219 221 225 228 230 233 236 239 241 243 244 246 248 251 255 258 262
285 284 283 283 284 286 288 288 287 284 281 279 276 272 267 265 265 267 267 269 270 269 269 269 267 264 262 262 262 259 255 252 253 258 260 255 252 254 251 245 242 241 240 243 247 251 254 252 247 242 237 231 225 218 211 209 213 214 211 210 214 219 222 224 226 228 227 223 219 220 224 227 230 232 234 237 239 239 240 243 246 249 249 251 259
287 284 283 286 287 288 291 291 290 290 287 284 282 278 273 269 266 265 265 266 268 268 268 267 266 264 262 261 262 261 260 256 252 253 258 257 253 257 260 255 249 246 243 242 242 244 249 253 253 249 243 236 234 229 219 214 216 218 217 215 216 220 224 225 227 229 230 228 224 223 224 228 230 230 232 235 236 237 239 241 245 247 246 247 256
289 286 288 291 290 290 292 291 289 288 287 286 286 283 281 278 274 271 269 268 268 269 269 268 267 265 262 260 261 261 261 259 255 250 251 252 249 249 254 255 253 251 249 246 244 242 243 247 252 254 251 245 239 233 225 220 220 224 227 224 222 223 224 222 222 225 228 229 227 224 225 230 232 230 231 233 233 235 239 240 243 247 246 250 259
289 291 293 294 292 292 292 290 289 289 288 287 287 286 284 282 280 278 275 272 271 270 269 269 269 268 265 263 261 259 258 259 257 253 248 246 242 241 244 248 249 250 251 251 251 249 246 245 246 249 250 249 244 236 228 224 223 223 222 219 217 217 216 214 215 220 225 226 226 225 226 231 234 232 230 230 231 235 240 241 244 247 251 257 262
293 295 297 297 295 294 292 290 289 288 288 287 286 284 282 280 278 277 276 275 273 272 270 269 268 268 267 265 260 257 257 256 257 256 252 247 241 238 241 245 246 247 250 252 254 255 254 251 249 247 246 246 248 248 239 230 226 222 215 211 213 215 212 211 213 218 224 225 224 222 223 228 233 230 225 225 230 233 237 241 245 246 252 260 261
293 296 299 300 297 293 290 289 288 287 287 287 286 285 285 283 282 281 279 277 275 274 273 271 269 267 266 264 260 257 255 254 255 256 256 252 246 240 239 244 249 247 246 249 253 255 257 257 254 250 245 242 244 249 243 231 225 222 217 217 218 215 213 214 215 216 218 221 222 219 217 223 229 223 210 212 222 228 233 240 242 242 250 258 257
295 298 299 298 295 293 290 290 290 290 290 291 291 291 290 288 287 286 285 283 279 277 276 273 271 269 265 262 259 256 254 253 253 253 252 253 251 245 240 244 251 250 244 247 253 253 255 257 256 250 244 239 238 242 240 232 227 226 226 227 225 220 216 216 215 213 211 214 219 218 215 219 222 213 202 204 211 218 225 232 237 239 242 247 250
Height
1537 1539 1542 1542 1541 1543 1544 1544 1545 1545 1546 1548 1549 1549 1550 1550 1551 1551 1551 1551 1554 1555 1555 1556 1556 1557 1557 1558 1559 1560 1561 1562 1564 1564 1562 1562 1563 1563 1564 1564 1565 1565 1566 1567 1567 1568 1569 1569 1569 1571 1571 1572 1573 1573 1574 1574 1574 1575 1575 1575 1575 1574 1574 1574 1574 1574 1574 1574 1574 1574 1574 1573 1573 1573 1572 1571 1570 1569 1569 1568 1567 1566 1565 1563 1561
1537 1539 1541 1541 1541 1543 1544 1544 1544 1544 1545 1548 1549 1550 1551 1551 1551 1552 1552 1553 1555 1556 1555 1556 1556 1556 1557 1558 1560 1561 1561 1561 1563 1564 1562 1561 1562 1563 1563 1564 1564 1564 1565 1566 1566 1567 1567 1568 1568 1570 1571 1571 1572 1573 1573 1573 1574 1574 1575 1575 1575 1574 1574 1574 1574 1574 1574 1574 1574 1574 1574 1574 1573 1573 1573 1572 1571 1570 1569 1568 1567 1566 1565 1563 1562
1536 1538 1539 1541 1541 1542 1543 1543 1544 1544 1545 1547 1549 1550 1550 1551 1551 1552 1553 1554 1556 1556 1555 1556 1556 1557 1557 1557 1559 1560 1561 1561 1562 1564 1563 1561 1561 1562 1563 1563 1563 1564 1564 1565 1565 1565 1566 1567 1567 1568 1569 1570 1571 1572 1572 1573 1573 1574 1574 1574 1574 1574 1574 1574 1574 1574 1574 1574 1575 1575 1574 1574 1574 1573 1573 1572 1571 1570 1569 1569 1568 1567 1565 1564 1562
1535 1537 1538 1539 1540 1541 1542 1542 1543 1544 1546 1546 1547 1548 1549 1550 1551 1552 1553 1554 1556 1556 1555 1555 1556 1557 1557 1557 1558 1559 1560 1561 1561 1563 1563 1561 1561 1562 1562 1562 1563 1563 1563 1564 1564 1565 1565 1566 1566 1567 1568 1569 1570 1571 1571 1572 1572 1573 1573 1573 1574 1574 1574 1574 1574 1574 1574 1575 1575 1575 1575 1574 1574 1574 1573 1572 1571 1571 1570 1569 1568 1567 1565 1564 1562
1534 1536 1537 1538 1539 1540 1541 1542 1543 1544 1545 1546 1546 1547 1548 1549 1551 1552 1553 1554 1555 1556 1556 1555 1555 1556 1557 1557 1558 1559 1560 1561 1561 1562 1563 1562 1561 1561 1562 1562 1562 1562 1562 1562 1563 1564 1564 1565 1565 1566 1567 1568 1569 1570 1570 1571 1571 1572 1572 1573 1573 1573 1573 1573 1573 1573 1574 1574 1575 1575 1575 1575 1574 1574 1573 1572 1571 1571 1570 1569 1568 1567 1566 1564 1563
1533 1534 1535 1537 1539 1541 1541 1542 1543 1544 1545 1546 1545 1546 1546 1548 1550 1552 1552 1553 1554 1555 1555 1555 1555 1555 1556 1556 1557 1558 1559 1560 1561 1561 1562 1563 1561 1560 1561 1561 1561 1561 1561 1561 1562 1563 1563 1564 1564 1565 1566 1567 1568 1568 1569 1570 1570 1571 1571 1572 1572 1572 1572 1573 1573 1573 1574 1574 1574 1575 1575 1574 1574 1574 1573 1572 1571 1571 1570 1569 1568 1567 1566 1564 1563
1531 1533 1534 1536 1538 1540 1541 1541 1541 1543 1545 1545 1545 1545 1545 1547 1549 1551 1552 1552 1553 1554 1555 1555 1555 1555 1555 1556 1556 1558 1559 1559 1561 1561 1561 1562 1562 1561 1560 1560 1560 1561 1560 1560 1561 1561 1562 1563 1563 1564 1564 1565 1566 1567 1568 1569 1569 1570 1570 1571 1571 1571 1572 1572 1572 1572 1573 1573 1574 1574 1574 1574 1574 1574 1573 1572 1572 1571 1570 1569 1568 1567 1566 1565 1563
1529 1531 1533 1535 1537 1538 1540 1540 1540 1542 1543 1544 1544 1544 1544 1546 1548 1550 1551 1552 1553 1553 1554 1554 1554 1554 1555 1555 1556 1556 1558 1558 1559 1560 1560 1561 1561 1561 1561 1559 1558 1559 1560 1560 1560 1560 1561 1561 1562 1562 1563 1564 1565 1566 1567 1568 1568 1569 1569 1570 1570 1570 1571 1571 1571 1572 1572 1573 1573 1574 1574 1574 1574 1574 1573 1572 1572 1571 1570 1569 1568 1567 1566 1565 1564
1528 1530 1531 1533 1535 1536 1537 1538 1539 1540 1541 1542 1543 1544 1544 1545 1546 1548 1550 1551 1552 1553 1553 1553 1553 1552 1553 1554 1555 1555 1556 1557 1558 1558 1560 1560 1560 1560 1561 1560 1559 1558 1558 1558 1559 1559 1560 1560 1560 1561 1561 1562 1563 1564 1565 1566 1567 1568 1568 1569 1569 1570 1570 1571 1571 1571 1572 1572 1573 1573 1574 1574 1574 1573 1573 1572 1572 1571 1570 1569 1568 1567 1566 1565 1564
1527 1528 1529 1531 1533 1534 1535 1536 1538 1539 1540 1541 1542 1543 1544 1544 1544 1546 1548 1549 1551 1552 1552 1553 1552 1552 1551 1551 1553 1554 1555 1555 1556 1557 1557 1559 1559 1559 1560 1560 1560 1559 1559 1558 1557 1558 1559 1559 1559 1559 1560 1560 1562 1562 1563 1565 1566 1566 1567 1568 1568 1569 1569 1570 1570 1570 1571 1572 1572 1573 1573 1573 1573 1573 1573 1572 1572 1571 1570 1569 1568 1567 1566 1565 1564
1528 1528 1528 1529 1530 1531 1533 1534 1536 1537 1538 1539 1540 1542 1543 1543 1544 1545 1547 1548 1549 1550 1550 1551 1551 1551 1551 1550 1550 1551 1553 1554 1555 1555 1556 1556 1557 1558 1559 1559 1559 1559 1559 1559 1558 1557 1557 1558 1558 1558 1558 1559 1559 1560 1561 1563 1564 1565 1566 1566 1567 1567 1568 1569 1569 1570 1570 1571 1572 1572 1573 1573 1573 1573 1573 1572 1572 1571 1570 1569 1568 1567 1566 1565 1563
1528 1528 1528 1529 1529 1530 1531 1532 1533 1535 1536 1537 1538 1540 1541 1541 1541 1543 1546 1547 1548 1548 1549 1548 1548 1549 1549 1550 1549 1549 1551 1552 1553 1554 1554 1555 1556 1557 1558 1558 1558 1557 1557 1558 1558 1557 1556 1556 1557 1557 1557 1557 1558 1559 1559 1560 1562 1564 1565 1565 1565 1566 1567 1568 1568 1569 1569 1570 1571 1572 1573 1573 1573 1573 1573 1572 1572 1571 1570 1569 1568 1567 1566 1565 1563
1528 1528 1528 1528 1528 1529 1530 1530 1531 1532 1534 1535 1536 1537 1539 1539 1539 1540 1543 1545 1546 1547 1548 1547 1547 1547 1548 1548 1549 1548 1549 1551 1551 1552 1553 1553 1554 1555 1555 1556 1556 1556 1556 1556 1556 1556 1555 1555 1555 1556 1556 1556 1556 1557 1558 1559 1560 1562 1563 1564 1564 1565 1566 1566 1567 1567 1568 1569 1570 1571 1572 1572 1573 1572 1572 1572 1571 1571 1570 1569 1568 1567 1566 1565 1564
1527 1527 1527 1527 1527 1528 1528 1528 1529 1530 1531 1533 1534 1535 1536 1537 1537 1537 1540 1543 1544 1546 1546 1546 1546 1546 1547 1547 1547 1547 1548 1549 1550 1550 1551 1552 1552 1553 1553 1554 1554 1555 1555 1554 1554 1555 1554 1553 1554 1555 1554 1553 1554 1555 1556 1557 1558 1559 1561 1562 1563 1564 1564 1565 1565 1566 1567 1568 1569 1570 1571 1571 1572 1572 1571 1571 1571 1570 1570 1569 1568 1567 1566 1565 1564
1526 1526 1526 1526 1526 1526 1526 1527 1527 1528 1529 1530 1531 1532 1533 1534 1535 1535 1537 1540 1542 1543 1544 1544 1545 1545 1546 1545 1546 1546 1546 1546 1548 1548 1549 1549 1550 1551 1551 1552 1552 1553 1554 1554 1553 1553 1554 1553 1553 1553 1553 1552 1552 1553 1554 1555 1556 1557 1559 1560 1561 1562 1563 1564 1564 1565 1566 1567 1568 1569 1570 1570 1571 1571 1571 1570 1570 1570 1569 1568 1568 1566 1565 1565 1564
1524 1525 1525 1525 1525 1525 1525 1525 1526 1526 1527 1528 1529 1529 1530 1530 1532 1533 1535 1538 1539 1540 1541 1541 1542 1544 1544 1543 1545 1545 1544 1544 1545 1545 1545 1546 1547 1548 1548 1549 1550 1551 1552 1552 1551 1551 1552 1552 1552 1552 1552 1551 1550 1551 1552 1553 1554 1556 1557 1558 1559 1560 1561 1562 1563 1564 1565 1566 1567 1568 1569 1570 1570 1570 1570 1569 1569 1569 1569 1568 1567 1566 1565 1564 1564
1522 1523 1523 1524 1524 1524 1524 1524 1524 1525 1525 1526 1527 1527 1528 1528 1529 1531 1534 1536 1536 1537 1538 1539 1540 1541 1541 1541 1542 1542 1541 1542 1543 1542 1543 1543 1544 1545 1545 1546 1547 1548 1549 1549 1549 1550 1550 1550 1551 1552 1551 1550 1549 1549 1550 1551 1552 1553 1555 1556 1557 1558 1558 1560 1561 1562 1563 1565 1566 1567 1568 1569 1569 1569 1569 1569 1568 1568 1568 1568 1567 1566 1565 1564 1564
1521 1522 1522 1522 1523 1523 1523 1523 1523 1524 1524 1525 1526 1526 1527 1528 1528 1530 1532 1533 1534 1534 1535 1536 1537 1538 1538 1538 1539 1539 1540 1541 1541 1540 1541 1541 1542 1543 1543 1544 1545 1546 1546 1546 1547 1548 1548 1548 1549 1550 1550 1549 1548 1548 1548 1549 1549 1550 1552 1554 1555 1555 1556 1558 1559 1560 1562 1563 1565 1566 1567 1568 1568 1568 1568 1568 1568 1567 1567 1567 1566 1566 1565 1564 1564
1520 1520 1521 1522 1522 1522 1522 1523 1523 1523 1523 1524 1525 1525 1526 1527 1528 1529 1530 1531 1531 1531 1532 1533 1534 1534 1535 1535 1536 1537 1538 1539 1538 1539 1539 1539 1540 1541 1542 1543 1543 1544 1544 1544 1545 1546 1546 1546 1547 1548 1548 1548 1547 1547 1547 1547 1547 1547 1549 1552 1553 1554 1554 1556 1557 1558 1560 1562 1563 1564 1566 1567 1567 1567 1567 1567 1567 1567 1566 1566 1566 1565 1565 1564 1563
1519 1519 1520 1520 1521 1521 1521 1522 1522 1522 1523 1523 1524 1525 1525 1526 1527 1528 1528 1529 1529 1529 1529 1530 1530 1530 1531 1532 1533 1534 1536 1536 1537 1537 1537 1537 1537 1538 1539 1540 1541 1542 1542 1542 1543 1544 1544 1544 1545 1545 1546 1546 1546 1546 1546 1547 1546 1545 1546 1549 1551 1552 1553 1554 1555 1556 1558 1560 1561 1563 1564 1566 1566 1566 1566 1566 1566 1566 1565 1565 1565 1564 1564 1563 1563
1518 1518 1519 1519 1519 1520 1520 1520 1520 1521 1521 1521 1522 1523 1524 1524 1525 1525 1526 1526 1526 1526 1526 1526 1526 1527 1527 1528 1530 1531 1532 1533 1534 1535 1535 1535 1535 1535 1536 1538 1539 1539 1540 1540 1541 1542 1542 1543 1543 1544 1544 1544 1544 1544 1545 1546 1545 1544 1544 1546 1548 1549 1551 1551 1552 1554 1556 1558 1560 1561 1563 1564 1565 1565 1565 1565 1565 1564 1564 1564 1564 1563 1563 1562 1561
1517 1517 1517 1517 1518 1518 1518 1518 1519 1519 1519 1519 1520 1520 1521 1521 1522 1522 1522 1523 1523 1523 1523 1523 1523 1523 1523 1524 1526 1528 1529 1529 1530 1531 1532 1532 1532 1532 1533 1535 1536 1537 1538 1538 1539 1539 1540 1540 1540 1540 1541 1541 1542 1542 1542 1544 1544 1543 1542 1543 1545 1547 1548 1549 1550 1552 1554 1556 1558 1559 1561 1562 1563 1564 1564 1564 1563 1563 1563 1562 1562 1562 1562 1561 1561
1516 1516 1516 1516 1516 1516 1516 1516 1516 1516 1517 1517 1517 1517 1518 1518 1519 1519 1519 1519 1520 1520 1520 1520 1520 1520 1520 1521 1522 1523 1524 1525 1525 1527 1528 1529 1529 1529 1530 1532 1533 1534 1535 1536 1536 1536 1537 1537 1537 1536 1537 1538 1539 1539 1539 1541 1542 1542 1541 1540 1542 1544 1546 1545 1547 1549 1552 1554 1556 1557 1559 1560 1562 1562 1562 1563 1562 1562 1561 1561 1561 1561 1561 1561 1560
1514 1514 1514 1514 1514 1514 1514 1514 1514 1514 1514 1514 1514 1515 1515 1516 1516 1516 1516 1516 1516 1517 1517 1516 1517 1517 1517 1518 1519 1519 1520 1521 1522 1523 1525 1526 1526 1526 1526 1528 1529 1531 1533 1534 1534 1534 1534 1534 1534 1533 1533 1534 1536 1536 1536 1537 1538 1540 1540 1539 1540 1542 1543 1543 1544 1547 1550 1551 1554 1555 1557 1558 1560 1561 1561 1561 1561 1561 1560 1560 1560 1560 1560 1560 1559
1513 1513 1513 1513 1513 1513 1512 1512 1512 1512 1512 1512 1511 1511 1512 1512 1512 1512 1512 1512 1513 1513 1513 1513 1513 1514 1514 1515 1516 1516 1517 1518 1519 1520 1522 1523 1524 1523 1524 1526 1526 1527 1531 1533 1533 1533 1533 1532 1532 1531 1530 1531 1532 1532 1533 1534 1535 1537 1538 1538 1538 1540 1540 1541 1542 1545 1548 1549 1551 1553 1555 1556 1558 1559 1559 1560 1560 1560 1559 1559 1559 1559 1559 1559 1558
1511 1511 1511 1511 1510 1510 1510 1510 1510 1509 1509 1509 1509 1508 1508 1508 1508 1508 1509 1509 1509 1510 1510 1510 1510 1511 1511 1512 1512 1513 1514 1515 1516 1517 1519 1520 1520 1521 1523 1523 1524 1525 1527 1529 1531 1531 1532 1531 1530 1530 1529 1528 1528 1529 1530 1531 1532 1534 1536 1536 1537 1538 1539 1540 1541 1543 1546 1547 1549 1551 1553 1554 1556 1557 1558 1558 1559 1559 1558 1558 1558 1558 1558 1558 1557
1509 1509 1509 1508 1508 1508 1507 1507 1506 1506 1505 1505 1505 1504 1504 1504 1504 1504 1505 1505 1506 1506 1506 1507 1507 1508 1508 1508 1509 1510 1511 1512 1513 1514 1515 1516 1517 1519 1520 1521 1521 1522 1523 1525 1527 1528 1529 1529 1528 1528 1527 1526 1527 1527 1527 1528 1530 1532 1534 1535 1536 1537 1538 1539 1540 1542 1544 1545 1547 1549 1551 1552 1554 1555 1556 1557 1557 1557 1557 1557 1557 1557 1557 1557 1556
1507 1507 1507 1506 1506 1505 1505 1504 1503 1502 1501 1500 1500 1500 1500 1500 1500 1500 1500 1501 1502 1502 1503 1503 1503 1504 1505 1505 1506 1506 1507 1508 1509 1510 1512 1513 1514 1516 1517 1518 1519 1519 1520 1521 1521 1522 1525 1527 1527 1526 1526 1525 1524 1525 1524 1525 1528 1530 1531 1533 1534 1535 1537 1538 1539 1540 1542 1544 1546 1547 1549 1550 1552 1553 1554 1555 1556 1556 1556 1556 1556 1556 1556 1556 1555
1505 1505 1505 1504 1503 1503 1502 1501 1500 1499 1498 1497 1497 1496 1496 1496 1496 1497 1497 1498 1498 1499 1499 1499 1500 1501 1501 1502 1503 1503 1504 1505 1506 1507 1508 1510 1511 1512 1514 1515 1517 1517 1517 1517 1517 1518 1521 1523 1525 1526 1525 1523 1522 1521 1521 1523 1525 1527 1529 1531 1532 1533 1535 1536 1538 1539 1541 1542 1544 1545 1547 1548 1550 1552 1553 1554 1554 1555 1555 1555 1555 1555 1555 1555 1554
1503 1503 1502 1502 1501 1500 1499 1498 1496 1496 1495 1494 1494 1493 1493 1493 1493 1493 1494 1494 1495 1495 1496 1496 1496 1497 1498 1498 1499 1499 1501 1502 1503 1503 1505 1506 1507 1508 1510 1511 1513 1513 1514 1514 1513 1513 1517 1519 1521 1524 1523 1521 1520 1518 1518 1520 1522 1524 1526 1528 1530 1531 1533 1535 1536 1537 1539 1541 1542 1544 1545 1547 1548 1550 1551 1552 1552 1553 1553 1553 1554 1554 1553 1553 1553
1501 1501 1500 1499 1498 1497 1496 1495 1494 1493 1493 1492 1492 1491 1491 1490 1490 1490 1491 1491 1491 1491 1492 1493 1493 1494 1494 1495 1495 1496 1497 1498 1499 1500 1501 1502 1503 1505 1506 1507 1508 1509 1511 1511 1508 1509 1513 1514 1517 1521 1521 1519 1518 1516 1516 1518 1518 1520 1522 1525 1527 1529 1531 1533 1534 1536 1537 1538 1540 1542 1543 1545 1546 1548 1549 1550 1550 1551 1551 1552 1552 1552 1552 1552 1551
1499 1498 1497 1496 1496 1495 1494 1493 1492 1492 1491 1490 1490 1489 1489 1488 1488 1487 1487 1488 1488 1488 1489 1489 1490 1491 1491 1492 1492 1492 1493 1494 1495 1496 1497 1498 1499 1500 1502 1503 1504 1505 1507 1507 1504 1505 1509 1511 1513 1517 1518 1517 1516 1514 1515 1516 1516 1518 1520 1522 1524 1526 1528 1530 1532 1534 1535 1536 1538 1540 1541 1542 1544 1545 1547 1547 1548 1549 1549 1550 1550 1550 1550 1550 1550
1497 1496 1495 1494 1493 1492 1492 1491 1490 1489 1489 1488 1488 1488 1487 1487 1486 1485 1485 1485 1485 1486 1486 1486 1487 1488 1489 1489 1489 1490 1491 1491 1491 1492 1493 1495 1495 1496 1497 1498 1499 1500 1502 1503 1501 1501 1505 1508 1510 1513 1515 1516 1515 1513 1514 1515 1514 1515 1518 1519 1521 1523 1524 1526 1529 1531 1533 1534 1536 1537 1539 1540 1542 1543 1544 1545 1546 1547 1547 1548 1548 1548 1548 1548 1547
1494 1493 1493 1492 1491 1490 1489 1488 1488 1487 1486 1486 1486 1485 1485 1485 1484 1484 1483 1483 1483 1482 1483 1483 1483 1485 1485 1486 1486 1487 1488 1488 1488 1488 1489 1491 1492 1492 1493 1493 1494 1495 1497 1498 1498 1498 1500 1503 1507 1510 1510 1511 1513 1513 1513 1513 1512 1512 1515 1517 1518 1520 1522 1523 1525 1528 1531 1532 1534 1535 1536 1538 1539 1541 1542 1543 1544 1545 1545 1546 1546 1546 1546 1546 1545
1492 1491 1490 1490 1489 1488 1487 1486 1485 1485 1484 1483 1483 1483 1482 1482 1482 1482 1481 1481 1480 1480 1479 1479 1480 1481 1481 1482 1483 1484 1485 1485 1485 1486 1486 1487 1488 1489 1489 1490 1490 1491 1492 1493 1494 1495 1496 1498 1503 1506 1505 1506 1509 1511 1512 1512 1510 1511 1513 1514 1515 1517 1519 1520 1522 1525 1528 1530 1531 1532 1534 1535 1537 1538 1539 1541 1542 1542 1543 1543 1544 1544 1544 1544 1543
1489 1489 1489 1488 1487 1486 1485 1484 1483 1482 1482 1481 1481 1480 1480 1480 1479 1479 1479 1479 1478 1478 1477 1477 1477 1477 1477 1478 1479 1480 1481 1481 1482 1483 1483 1484 1485 1485 1486 1486 1486 1487 1488 1489 1489 1491 1493 1494 1497 1501 1502 1503 1505 1507 1508 1509 1508 1508 1510 1511 1512 1514 1516 1518 1520 1523 1526 1528 1529 1530 1531 1533 1534 1536 1537 1538 1539 1540 1540 1541 1541 1541 1542 1541 1541
1487 1487 1486 1486 1485 1484 1483 1482 1481 1480 1479 1478 1478 1478 1477 1477 1477 1476 1476 1476 1476 1475 1475 1474 1474 1474 1474 1474 1475 1476 1477 1477 1478 1479 1480 1481 1481 1482 1482 1483 1483 1484 1484 1485 1485 1487 1489 1489 1491 1495 1497 1499 1502 1502 1503 1504 1504 1505 1507 1508 1509 1511 1512 1514 1517 1521 1523 1525 1527 1528 1529 1530 1532 1533 1534 1535 1536 1537 1537 1538 1539 1539 1539 1539 1539
1485 1485 1484 1483 1482 1481 1481 1480 1479 1477 1476 1476 1475 1475 1474 1474 1474 1473 1473 1473 1473 1472 1472 1471 1471 1471 1471 1470 1471 1472 1473 1473 1474 1475 1476 1477 1478 1478 1479 1479 1480 1481 1481 1481 1482 1483 1484 1485 1487 1490 1492 1494 1498 1498 1497 1498 1499 1500 1503 1505 1506 1507 1509 1512 1514 1517 1519 1521 1523 1524 1525 1527 1528 1530 1531 1532 1533 1534 1535 1535 1536 1536 1537 1537 1537
1483 1483 1482 1481 1480 1479 1478 1477 1476 1475 1474 1473 1473 1472 1472 1471 1470 1470 1470 1469 1469 1469 1469 1468 1468 1468 1467 1467 1467 1467 1468 1469 1470 1471 1472 1473 1474 1474 1475 1476 1477 1478 1478 1477 1478 1478 1480 1481 1483 1486 1487 1489 1493 1494 1492 1493 1495 1497 1499 1500 1501 1504 1507 1510 1511 1512 1514 1516 1518 1520 1522 1524 1525 1526 1528 1529 1530 1531 1532 1532 1533 1534 1534 1535 1535
1480 1480 1479 1478 1477 1476 1475 1474 1473 1472 1471 1471 1470 1470 1469 1468 1468 1467 1467 1466 1466 1465 1465 1465 1465 1464 1464 1463 1463 1463 1463 1464 1466 1467 1468 1469 1470 1470 1471 1472 1473 1473 1474 1474 1474 1474 1476 1478 1479 1481 1483 1485 1488 1490 1490 1488 1488 1491 1493 1494 1497 1500 1502 1505 1507 1508 1510 1512 1514 1516 1518 1520 1521 1523 1524 1525 1526 1527 1528 1529 1530 1531 1532 1532 1532
1477 1477 1476 1475 1474 1473 1472 1471 1471 1470 1469 1468 1467 1467 1467 1466 1465 1464 1464 1463 1462 1462 1461 1461 1460 1460 1460 1459 1459 1458 1458 1459 1460 1461 1463 1465 1465 1466 1466 1468 1469 1469 1470 1470 1471 1471 1472 1473 1474 1476 1478 1479 1482 1484 1485 1483 1483 1485 1487 1491 1494 1496 1498 1501 1503 1505 1506 1508 1510 1511 1513 1515 1517 1518 1520 1521 1523 1524 1525 1526 1527 1528 1529 1530 1530
1475 1474 1473 1472 1471 1470 1468 1467 1467 1466 1465 1465 1464 1464 1464 1463 1462 1461 1460 1459 1458 1457 1456 1456 1455 1455 1455 1455 1454 1454 1454 1454 1454 1455 1456 1458 1459 1460 1461 1463 1464 1464 1465 1465 1466 1466 1467 1468 1470 1471 1472 1472 1475 1477 1478 1480 1482 1482 1482 1485 1489 1491 1493 1496 1499 1502 1504 1505 1506 1507 1509 1511 1513 1515 1517 1519 1520 1521 1522 1523 1524 1526 1527 1527 1527
1472 1471 1471 1469 1467 1466 1465 1463 1463 1462 1461 1461 1460 1460 1460 1460 1459 1457 1456 1454 1454 1453 1452 1451 1450 1450 1450 1449 1449 1449 1449 1449 1449 1450 1450 1451 1453 1454 1456 1457 1458 1459 1460 1460 1461 1462 1463 1463 1465 1467 1466 1465 1468 1471 1473 1476 1478 1477 1477 1479 1482 1484 1487 1489 1492 1495 1497 1499 1501 1502 1504 1507 1510 1512 1513 1515 1516 1518 1519 1520 1522 1523 1524 1524 1525
1470 1469 1467 1466 1464 1462 1461 1460 1459 1458 1457 1457 1456 1456 1456 1455 1455 1453 1452 1450 1449 1448 1447 1446 1446 1445 1445 1444 1444 1444 1444 1444 1445 1445 1445 1446 1447 1449 1450 1452 1453 1454 1455 1455 1456 1459 1460 1459 1460 1462 1461 1461 1463 1464 1466 1470 1473 1474 1475 1476 1477 1479 1481 1483 1485 1488 1490 1493 1496 1498 1500 1503 1506 1507 1509 1510 1512 1515 1516 1518 1519 1521 1521 1522 1522
1467 1466 1464 1462 1461 1459 1458 1456 1455 1453 1452 1452 1452 1451 1451 1450 1450 1448 1447 1445 1444 1442 1442 1441 1441 1440 1440 1439 1438 1438 1438 1439 1440 1440 1440 1441 1442 1444 1445 1446 1447 1448 1449 1451 1452 1454 1456 1456 1456 1456 1456 1458 1460 1461 1462 1465 1467 1469 1471 1471 1472 1474 1476 1478 1481 1483 1486 1489 1492 1494 1496 1498 1501 1502 1504 1506 1509 1511 1513 1514 1516 1517 1519 1519 1520
1464 1462 1460 1459 1458 1457 1455 1454 1452 1450 1448 1448 1447 1446 1445 1445 1444 1443 1441 1440 1438 1436 1436 1436 1435 1435 1435 1434 1433 1432 1433 1433 1434 1435 1436 1437 1438 1440 1441 1441 1441 1442 1444 1445 1446 1448 1451 1452 1451 1451 1453 1455 1456 1458 1460 1461 1462 1463 1463 1464 1467 1471 1474 1476 1479 1482 1484 1487 1489 1490 1492 1493 1496 1498 1500 1503 1506 1508 1510 1511 1513 1515 1516 1517 1517
1461 1458 1457 1456 1455 1454 1452 1451 1449 1446 1445 1444 1443 1442 1441 1440 1439 1438 1436 1434 1432 1430 1429 1429 1429 1429 1429 1429 1427 1426 1427 1427 1427 1429 1431 1432 1433 1434 1434 1435 1436 1437 1438 1439 1440 1443 1445 1446 1446 1448 1450 1452 1453 1454 1455 1458 1459 1459 1460 1461 1464 1470 1474 1476 1478 1480 1482 1484 1486 1487 1488 1490 1492 1494 1496 1500 1503 1506 1507 1508 1510 1512 1513 1514 1514
1458 1456 1455 1453 1452 1450 1449 1448 1445 1442 1441 1440 1439 1438 1437 1436 1434 1433 1431 1429 1427 1424 1423 1423 1423 1422 1422 1422 1421 1420 1420 1420 1421 1423 1426 1427 1428 1428 1427 1428 1429 1431 1432 1433 1435 1437 1439 1440 1442 1443 1446 1448 1450 1451 1452 1455 1456 1458 1461 1463 1465 1468 1471 1473 1474 1476 1478 1480 1482 1484 1485 1487 1488 1491 1494 1497 1500 1503 1504 1505 1507 1509 1510 1511 1511
1455 1453 1452 1451 1449 1447 1446 1444 1442 1439 1437 1436 1435 1434 1433 1431 1429 1427 1424 1423 1421 1418 1417 1417 1417 1416 1415 1415 1414 1414 1414 1414 1415 1418 1420 1422 1423 1422 1422 1422 1423 1424 1426 1428 1430 1431 1433 1435 1437 1439 1441 1444 1447 1449 1450 1451 1453 1454 1457 1458 1459 1462 1464 1466 1469 1471 1473 1475 1478 1480 1483 1484 1485 1489 1492 1494 1497 1500 1501 1502 1504 1506 1507 1508 1508
1452 1451 1449 1448 1446 1444 1442 1440 1438 1435 1433 1432 1431 1429 1428 1427 1425 1422 1419 1417 1414 1412 1411 1410 1410 1409 1408 1408 1408 1408 1407 1408 1411 1413 1414 1416 1417 1416 1417 1418 1418 1418 1420 1424 1426 1426 1427 1430 1431 1433 1436 1439 1442 1445 1446 1447 1449 1450 1451 1453 1454 1456 1458 1459 1462 1466 1470 1472 1475 1477 1480 1481 1484 1487 1489 1491 1494 1496 1497 1499 1501 1503 1504 1505 1505
1450 1448 1447 1445 1443 1441 1439 1436 1434 1432 1429 1427 1426 1425 1423 1422 1420 1417 1415 1411 1408 1407 1405 1404 1403 1402 1401 1401 1402 1402 1401 1402 1405 1407 1408 1411 1410 1410 1412 1414 1413 1412 1416 1420 1422 1422 1423 1425 1426 1428 1430 1433 1437 1440 1442 1443 1445 1446 1448 1451 1451 1452 1453 1455 1457 1461 1464 1467 1471 1474 1476 1478 1481 1484 1486 1487 1490 1492 1494 1496 1498 1500 1502 1503 1503